Paris Orly, France

2:25 PM CEST on June 22, 2018 (GMT +0200)
Orly

Weather History for LFPO - June, 2014

Change the Weather History Date:

Sunday, June 1, 2014

  Actual Average Record
Temperature  
Mean Temperature 57 °F -  
Max Temperature 65 °F 72 °F 84 °F (2017)
Min Temperature 49 °F 53 °F 37 °F (2006)
Degree Days  
Heating Degree Days 8    
Growing Degree Days 7 (Base 50)    
Moisture  
Dew Point 46 °F    
Average Humidity 59    
Maximum Humidity 82    
Minimum Humidity 39    
Precipitation  
Precipitation 0.00 in - - ()
Sea Level Pressure  
Sea Level Pressure 30.19 in    
Wind  
Wind Speed 6 mph ()    
Max Wind Speed 12 mph    
Max Gust Speed 18 mph    
Visibility 9.9 miles    
Events      
Averages and records for this station are not official NWS values.
T = Trace of Precipitation, MM = Missing Value Source: Averaged Metar Reports

Daily Weather History Graph

Daily Weather History Graph

Search for Another Location

Airport or City:

Astronomy

Jun. 01, 2014 Rise Set
Actual Time 5:52 AM CEST 9:44 PM CEST
Civil Twilight 5:11 AM CEST 10:25 PM CEST
Nautical Twilight 4:15 AM CEST 11:22 PM CEST
Astronomical Twilight 2:48 AM CEST 12:51 AM CEST
Moon 9:19 AM CEST (6/1) No Moon Set
Length of Visible Light 17h 14m
Length of Day
15h 52m
Waxing Crescent, 13% of the Moon is Illuminated
Jun 1
Waxing Crescent
Jun 5
First Quarter
Jun 13
Full
Jun 19
Last Quarter
Jun 27
New

Hourly Weather History & Observations

Time (CEST) Temp. Dew Point Humidity Pressure Visibility Wind Dir Wind Speed Gust Speed Precip Events Conditions
12:00 AM 57 °F 48 °F 64% 30.24 in 12 mi North 5.8 mph - -  
12:00 AM 57.2 °F 48.2 °F 72% 30.21 in - North 5.8 mph - N/A   Clear
12:30 AM 57.2 °F 48.2 °F 72% 30.21 in - North 8.1 mph - N/A   Clear
1:00 AM 56 °F 48 °F 67% 30.23 in 12 mi North 8.1 mph - -  
1:00 AM 55.4 °F 48.2 °F 77% 30.21 in - North 8.1 mph - N/A   Clear
1:30 AM 55.4 °F 48.2 °F 77% 30.21 in - North 5.8 mph - N/A   Clear
2:00 AM 54 °F 43 °F 57% 30.23 in 12 mi NNE 6.9 mph - -  
2:00 AM 53.6 °F 42.8 °F 67% 30.21 in - NNE 6.9 mph - N/A   Clear
2:30 AM 53.6 °F 41.0 °F 62% 30.21 in 6.2 mi NNE 8.1 mph - N/A   Partly Cloudy
3:00 AM 52 °F 40 °F 53% 30.23 in 12 mi North 3.5 mph - -   Scattered Clouds
3:00 AM 51.8 °F 39.2 °F 62% 30.21 in - North 3.5 mph - N/A   Clear
3:30 AM 51.8 °F 41.0 °F 67% 30.21 in - NNW 4.6 mph - N/A   Clear
4:00 AM 51 °F 39 °F 53% 30.23 in 12 mi NNW 3.5 mph - -  
4:00 AM 50.0 °F 39.2 °F 66% 30.21 in - NNW 3.5 mph - N/A   Clear
4:30 AM 51.8 °F 42.8 °F 71% 30.21 in - NNW 8.1 mph - N/A   Clear
5:00 AM 52 °F 43 °F 63% 30.23 in 12 mi NNW 6.9 mph - -   Clear
5:00 AM 51.8 °F 42.8 °F 71% 30.21 in - NNW 6.9 mph - N/A   Clear
5:30 AM 51.8 °F 42.8 °F 71% 30.21 in - North 4.6 mph - N/A   Clear
6:00 AM 50 °F 44 °F 73% 30.23 in 12 mi NNW 4.6 mph - -   Clear
6:00 AM 50.0 °F 44.6 °F 82% 30.21 in - NNW 4.6 mph - N/A   Clear
6:30 AM 50.0 °F 42.8 °F 76% 30.21 in - NNW 4.6 mph - N/A   Clear
7:00 AM 52 °F 44 °F 66% 30.23 in 12 mi NW 3.5 mph - -   Clear
7:00 AM 51.8 °F 44.6 °F 76% 30.21 in - NW 3.5 mph - N/A   Clear
7:30 AM 53.6 °F 44.6 °F 72% 30.21 in - NW 3.5 mph - N/A   Clear
8:00 AM 55 °F 44 °F 56% 30.23 in 12 mi NNW 3.5 mph - -   Scattered Clouds
8:00 AM 55.4 °F 44.6 °F 67% 30.21 in - Variable 3.5 mph - N/A   Clear
8:30 AM 57.2 °F 44.6 °F 63% 30.21 in - North 3.5 mph - N/A   Clear
9:00 AM 58 °F 43 °F 47% 30.23 in 12 mi NNE 4.6 mph - -   Scattered Clouds
9:00 AM 57.2 °F 42.8 °F 59% 30.21 in - NNE 4.6 mph - N/A   Clear
9:30 AM 59.0 °F 44.6 °F 59% 30.21 in - North 6.9 mph - N/A   Clear
10:00 AM 60 °F 44 °F 45% 30.22 in 12 mi North 5.8 mph - -   Mostly Cloudy
10:00 AM 60.8 °F 44.6 °F 55% 30.21 in 6.2 mi North 5.8 mph - N/A   Mostly Cloudy
10:30 AM 59.0 °F 44.6 °F 59% 30.21 in 6.2 mi NNW 6.9 mph - N/A   Mostly Cloudy
11:00 AM 61 °F 45 °F 44% 30.22 in 16 mi North 8.1 mph - -   Mostly Cloudy
11:00 AM 60.8 °F 44.6 °F 55% 30.21 in - North 8.1 mph - N/A   Clear
11:30 AM 60.8 °F 44.6 °F 55% 30.21 in 6.2 mi NNW 8.1 mph - N/A   Mostly Cloudy
12:00 PM 62 °F 46 °F 45% 30.21 in 16 mi NNW 8.1 mph - -   Mostly Cloudy
12:00 PM 62.6 °F 46.4 °F 55% 30.21 in 6.2 mi NNW 8.1 mph - N/A   Mostly Cloudy
12:30 PM 60.8 °F 46.4 °F 59% 30.21 in 6.2 mi NW 8.1 mph - N/A   Mostly Cloudy
1:00 PM 62 °F 48 °F 50% 30.21 in 16 mi WNW 6.9 mph - -   Mostly Cloudy
1:00 PM 62.6 °F 48.2 °F 59% 30.21 in 6.2 mi WNW 6.9 mph - N/A   Mostly Cloudy
1:30 PM 62.6 °F 46.4 °F 55% 30.18 in 6.2 mi NW 4.6 mph - N/A   Mostly Cloudy
2:00 PM 65 °F 46 °F 39% 30.20 in 12 mi West 4.6 mph - -   Clear
2:00 PM 64.4 °F 46.4 °F 52% 30.18 in 6.2 mi Variable 5.8 mph - N/A   Mostly Cloudy
2:30 PM 62.6 °F 46.4 °F 55% 30.18 in 6.2 mi NW 6.9 mph - N/A   Mostly Cloudy
3:00 PM 63 °F 47 °F 46% 30.19 in 12 mi NW 8.1 mph - -   Clear
3:00 PM 62.6 °F 48.2 °F 59% 30.18 in 6.2 mi NW 8.1 mph - N/A   Mostly Cloudy
3:30 PM 64.4 °F 50.0 °F 59% 30.18 in 6.2 mi NNW 5.8 mph 18.4 mph N/A   Mostly Cloudy
4:00 PM 65 °F 48 °F 43% 30.18 in 12 mi NW 4.6 mph - -   Clear
4:00 PM 66.2 °F 48.2 °F 52% 30.18 in 6.2 mi NW 4.6 mph - N/A   Mostly Cloudy
4:30 PM 64.4 °F 46.4 °F 52% 30.18 in 6.2 mi NW 8.1 mph - N/A   Mostly Cloudy
5:00 PM 65 °F 48 °F 43% 30.17 in 12 mi North 6.9 mph - -   Clear
5:00 PM 64.4 °F 48.2 °F 56% 30.15 in 6.2 mi North 6.9 mph - N/A   Mostly Cloudy
5:30 PM 64.4 °F 46.4 °F 52% 30.15 in 6.2 mi WNW 9.2 mph - N/A   Mostly Cloudy
6:00 PM 64 °F 48 °F 46% 30.17 in 22 mi NW 10.4 mph - -   Clear
6:00 PM 64.4 °F 48.2 °F 56% 30.15 in 6.2 mi NW 11.5 mph - N/A   Mostly Cloudy
6:30 PM 62.6 °F 50.0 °F 63% 30.15 in 6.2 mi WNW 9.2 mph - N/A   Mostly Cloudy
7:00 PM 62 °F 47 °F 48% 30.16 in 16 mi NW 8.1 mph - -   Mostly Cloudy
7:00 PM 62.6 °F 48.2 °F 59% 30.15 in 6.2 mi NW 8.1 mph - N/A   Mostly Cloudy
7:30 PM 62.6 °F 48.2 °F 59% 30.15 in 6.2 mi NW 6.9 mph - N/A   Mostly Cloudy
8:00 PM 62 °F 47 °F 48% 30.16 in 16 mi NW 5.8 mph - -   Mostly Cloudy
8:00 PM 62.6 °F 48.2 °F 59% 30.15 in 6.2 mi NW 5.8 mph - N/A   Mostly Cloudy
8:30 PM 62.6 °F 46.4 °F 55% 30.15 in 6.2 mi NW 5.8 mph - N/A   Mostly Cloudy
9:00 PM 62 °F 47 °F 48% 30.16 in 16 mi NNW 5.8 mph - -   Partly Cloudy
9:00 PM 62.6 °F 46.4 °F 55% 30.15 in - NNW 5.8 mph - N/A   Clear
9:30 PM 62.6 °F 46.4 °F 55% 30.15 in - NNW 4.6 mph - N/A   Clear
10:00 PM 61 °F 47 °F 51% 30.16 in 16 mi NW 3.5 mph - -   Partly Cloudy
10:00 PM 60.8 °F 48.2 °F 63% 30.15 in - NW 3.5 mph - N/A   Clear
10:30 PM 60.8 °F 48.2 °F 63% 30.15 in - WNW 8.1 mph - N/A   Clear
11:00 PM 59 °F 50 °F 63% 30.17 in 16 mi NW 6.9 mph - -   Partly Cloudy
11:00 PM 59.0 °F 50.0 °F 72% 30.15 in - NW 6.9 mph - N/A   Clear
11:30 PM 59.0 °F 50.0 °F 72% 30.15 in - NW 5.8 mph - N/A   Clear